Find Yaogan Weixing 28

NORAD ID: 41026 Int'l Des: 2015-064 Owner: ZZB Country: CN Constellation: yaogan operational
又名: YAOGAN 28 spacetrack, celestrak
LEOCIRCULARRETROGRADESSO

当前视图

正在加载3D地球...

About Yaogan Weixing 28

Yaogan Weixing 28 (NORAD 41026) is a yaogan constellation satellite launched Nov 8, 2015 by ZZB of CN. It operates in LEO, CIRCULAR, RETROGRADE, SSO orbit with a mass of 3000.00 kg.

即将过境

Passes for default location (London). Set your location on the main map for personalized predictions.

高度历史

Loading altitude history...

两行轨道根数

1 41026U 15064A 26250.64565850 .00005988 00000-0 21935-3 0 9996
2 41026 97.3180 27.3381 0008890 256.8871 103.1377 15.28348908603277
Epoch: Sep 7, 2026 • Age: 9 hours

当前状态

高度 495.9 km
远地点 / 近地点 N/A
速度 7.62 km/s
星下点 -47.58°S, 37.93°E
发射日期 Nov 8, 2015
运行时间 10.8 years
类型 military

技术详情

分类 Payload
质量 3000.00 kg
干质量 3000.00 kg
总质量 3000.00 kg
长度 2.00 m
直径 2.00 m
跨度 8.00 m
形状 Box + 2 Pan
制造商 CAST
平台类型 JB-11
阶段状态 In Orbit
所有者/国家 ZZB/CN

Most Searched